SCP
0 0 0 0 0 0 0 0 0 0 0 0 0 0 0 0 0 0 0 0 -0 0 0 0 0 -0 0 0 0 0 0 0 0 0 0 0 0 0 0 0 0 0 0 0 0 0 0 0 0
0 0 -0 0 0 0 0 0 0 0 0 0 0 0 0 0 0 0 0 0 0 -0 -0 -0 0 0 0 0 0 0 0 0 -0 0 0 0 0 0 0 0 0 0 0 0 0 0 0 0 0
0 -0 0 0 0 0 0 0 0 0 0 0 0 0 0 0 0 0 0 0 0 0 0 -0 0 0 0 0 0 0 0 0 0 0 0 0 0 0 0 0 0 0 0 0 0 0 0 0 0
0 -0 0 0 0 0 0 0 0 0 0 -0 0 0 0 0 0 0 0 0 0 -0 0 -0 0 0 0 0 0 0 0 0 0 0 0 0 0 0 0 0 0 0 0 0 0 0 0 0 0
0 0 0 0 0 0 0 0 0 0 0 0 0 0 0 0 0 0 0 0 0 0 0 -0 0 0 0 0 0 0 0 0 0 0 0 0 0 0 0 0 0 0 0 0 0 0 0 0 0
0 0 0 0 0 0 0 0 0 0 0 0 0 0 0 0 0 0 0 0 0 0 0 0 0 0 0 0 0 0 0 0 0 0 0 0 0 0 0 0 0 0 0 0 0 0 0 0 0
0 0 0 0 0 0 0 0 0 0 0 0 0 0 0 0 0 0 0 0 0 0 0 0 0 0 0 0 0 0 0 0 0 0 0 0 0 0 0 0 0 0 0 0 0 0 0 0 0
0 0 0 0 0 0 0 0 0 0 0 0 0 0 0 0 0 0 0 0 0 0 0 0 0 0 0 0 0 0 0 0 0 0 0 0 0 0 0 0 0 0 0 0 0 0 0 0 0
0 0 0 0 0 0 0 0 0 0 0 0 0 0 0 0 0 0 0 0 0 0 0 0 0 0 0 0 0 0 0 0 0 0 0 0 0 0 0 0 0 0 0 0 0 0 0 0 0
0 0 0 0 0 0 0 0 0 0 0 0 0 0 0 0 0 0 0 0 0 0 0 0 0 0 0 0 0 0 0 0 0 0 0 0 0 0 0 0 0 0 0 0 0 0 0 0 0
0 0 0 0 0 0 0 0 0 0 0 0 0 0 0 0 0 -0 -0 0 0 0 0 0 0 0 0 0 0 0 0 0 0 0 0 0 0 0 0 0 0 0 0 0 0 0 0 0 0
0 0 0 0 0 0 0 0 0 0 0 0 0 0 0 0 0 0 -0 -0 0 0 0 0 0 0 0 0 0 0 0 0 0 0 0 0 0 0 0 0 0 0 0 0 0 0 0 0 0
0 0 0 0 0 0 0 0 0 0 0 0 0 0 0 0 0 0 0 -0 -0 -0 0 0 0 0 0 0 0 0 0 0 0 0 0 0 0 0 0 0 0 0 0 0 0 0 0 0 0
0 0 0 0 0 0 0 0 0 0 0 0 0 0 0 0 0 0 0 0 0 -0 -0 0 0 0 0 0 0 0 0 0 0 0 0 0 0 0 0 0 0 0 0 0 0 0 0 0 0
0 0 0 0 0 0 0 0 0 0 0 0 -0 0 0 0 0 0 0 0 0 0 0 0 0 0 0 0 0 0 0 0 0 0 0 0 0 0 0 0 0 0 0 0 0 0 0 0 0
0 0 0 0 0 0 0 0 0 0 0 0 0 -0 -0 -0 0 0 0 0 0 0 0 0 0 0 0 0 0 0 0 0 0 0 0 0 0 0 0 0 0 0 0 0 0 0 0 0 0
0 0 0 0 0 0 0 0 0 0 0 0 0 0 0 0 -0 -0 -0 -0 0 0 0 0 0 0 0 0 0 0 0 0 0 0 0 0 0 0 0 0 0 0 0 0 0 0 0 0 0
0 0 0 0 0 0 0 0 0 0 0 0 0 0 0 0 0 0 -0 -0 -0 -0 0 0 0 0 0 0 0 0 0 0 0 0 0 0 0 0 0 0 0 0 0 0 0 0 0 0 0
0 0 0 0 0 0 0 0 0 0 0 0 0 0 0 0 0 0 -0 -0 -0 -0 -0 0 0 0 0 0 0 0 0 0 0 0 0 0 0 0 0 0 0 0 0 0 0 0 0 0 0
0 0 0 0 0 0 0 -0 -0 -0 -0 -0 0 0 0 0 -0 -0 -0 -0 -0 -0 -0 -0 0 -0 -0 -0 -0 -0 -0 -0 0 0 0 0 0 0 0 0 0 0 0 0 0 0 0 0 0
0 0 0 0 0 0 0 -0 -0 0 -0 0 0 0 0 0 0 0 0 -0 0 -0 -0 -0 -0 -0 -0 -0 -0 -0 -0 -0 -0 0 0 0 0 0 0 0 0 0 0 0 0 0 0 0 0
0 0 0 0 0 0 0 0 0 0 0 0 0 0 0 0 0 0 0 0 0 0 0 0 -0 -0 -0 -0 -0 -0 -0 -0 -0 -0 0 0 0 0 0 0 0 0 0 0 0 0 0 0 0
0 0 0 0 0 0 0 0 0 0 0 0 0 0 0 0 0 0 0 0 0 0 0 0 0 0 0 -0 -0 -0 -0 -0 -0 -0 -0 0 0 0 0 0 0 0 -0 -0 0 0 0 0 0
0 0 0 0 0 0 0 0 0 0 0 0 0 0 0 0 0 0 0 0 0 0 0 0 0 0 0 0 0 -0 -0 -0 -0 -0 -0 -0 -0 0 0 0 0 0 0 0 0 0 0 0 0
0 0 0 0 0 0 0 0 0 0 0 0 0 0 0 0 0 0 0 0 0 0 0 0 0 0 0 0 -0 -0 0 -0 -0 -0 -0 -0 -0 -0 0 0 0 0 0 0 0 0 0 0 0
0 0 0 0 0 0 0 0 0 0 0 0 0 0 0 0 0 0 0 0 0 0 0 0 0 0 0 0 0 -0 -0 -0 -0 -0 -0 -0 -0 -0 0 0 -0 0 0 0 0 -0 0 0 0
0 0 0 0 0 0 0 0 0 0 0 0 0 0 0 0 0 0 0 0 0 0 0 0 0 0 0 0 0 0 -0 -0 -0 -0 -0 -0 -0 -0 -0 0 0 -0 0 0 0 0 -0 0 0
0 0 0 0 0 0 0 0 0 0 0 0 0 0 0 0 0 0 0 0 0 0 0 0 0 0 0 0 0 0 0 0 0 -0 0 -0 -0 -0 -0 0 0 0 -0 0 0 0 0 0 0
0 0 0 0 0 0 0 0 0 0 0 0 0 0 0 0 0 0 0 0 0 0 0 0 0 0 0 0 0 0 0 0 0 0 0 0 0 -0 -0 -0 0 0 0 0 0 0 0 0 0
0 0 0 0 0 0 0 0 0 0 0 0 0 0 0 0 0 0 0 0 0 0 0 0 0 0 0 0 0 0 0 0 0 0 0 0 0 0 -0 -0 -0 0 -0 0 0 0 0 -0 0
Wind_Speed_500mb
16 19 16 15 6 8 10 9 11 11 13 26 16 13 11 18 17 12 31 45 40 28 21 28 16 7 9 13 18 23 22 20 18 19 18 17 17 16 17 19 22 24 24 23 20 18 17 17 11
14 15 11 11 6 10 9 18 12 22 25 20 13 6 11 23 41 32 53 47 41 38 22 34 27 14 14 16 15 20 23 22 21 21 21 21 21 21 20 21 24 26 26 23 21 21 22 18 15
8 9 11 6 8 10 4 4 19 25 29 9 9 8 15 18 49 30 38 45 46 37 25 16 28 26 19 23 21 21 24 26 25 24 26 25 25 24 23 23 25 28 27 25 23 23 26 23 22
5 7 11 5 18 19 14 14 25 23 14 15 9 12 48 58 35 38 37 43 45 41 39 33 31 29 24 23 25 25 26 29 29 30 30 29 27 27 26 27 28 30 32 33 32 31 32 30 25
6 11 5 10 19 13 23 19 10 12 9 32 16 19 44 58 37 38 45 47 48 48 45 44 45 40 31 23 26 28 28 31 33 34 34 34 34 33 31 31 32 33 35 35 36 36 38 32 26
8 7 7 13 9 7 15 11 14 13 29 41 28 26 33 53 62 60 48 42 36 30 39 27 39 41 40 29 24 29 33 34 37 39 38 37 36 36 36 36 37 37 38 38 38 37 35 29 27
6 6 12 18 23 10 13 18 37 31 42 43 30 16 19 62 59 50 45 30 26 15 11 12 6 7 18 37 32 32 37 37 39 41 44 42 41 39 38 38 39 40 41 42 40 35 32 30 29
6 5 8 9 11 13 18 16 26 33 16 16 40 18 27 62 52 34 16 16 12 14 13 13 13 10 8 4 21 34 34 42 44 43 46 47 47 45 43 42 42 42 43 42 39 38 33 29 30
4 4 6 11 14 12 28 19 35 19 16 41 33 38 40 45 36 37 39 35 35 33 33 29 26 23 20 15 10 12 39 36 44 48 52 49 50 51 50 49 46 46 44 45 44 48 44 38 37
5 3 10 21 23 13 24 25 25 17 37 30 54 45 46 46 51 48 51 53 52 50 46 44 38 33 27 23 21 15 9 40 38 45 56 55 55 53 56 55 52 51 50 52 50 52 51 47 45
2 6 8 25 22 22 20 28 28 24 19 31 39 48 50 46 48 46 45 46 49 50 49 49 49 43 37 29 23 23 19 17 41 42 46 51 52 57 58 59 57 56 57 60 58 59 59 58 56
3 20 23 19 22 11 6 6 32 38 14 20 26 30 35 43 46 47 50 50 52 50 52 52 50 51 46 41 31 28 29 22 24 36 48 50 54 63 63 61 65 64 62 67 68 71 69 66 64
5 17 29 25 16 23 4 13 33 31 19 20 20 27 35 39 41 42 46 48 54 57 52 52 53 49 52 51 46 36 29 36 33 28 34 50 58 61 71 70 68 70 67 68 75 78 78 75 71
15 22 27 25 16 19 13 15 17 23 15 20 22 28 33 39 42 47 56 58 62 61 61 57 52 51 49 49 48 48 43 38 40 41 28 38 51 66 69 75 80 77 75 68 69 79 84 81 81
10 17 14 23 22 10 16 16 14 13 14 19 21 23 30 36 41 48 51 56 60 64 65 66 60 55 50 50 49 45 46 46 41 42 51 33 36 57 73 73 77 75 76 71 68 71 78 86 83
10 6 9 9 21 5 9 12 12 7 12 19 20 22 25 28 36 43 48 51 56 62 70 71 69 64 55 48 47 48 43 45 47 44 46 56 45 41 57 76 78 84 88 82 80 77 77 80 86
8 4 7 10 13 9 6 16 13 5 11 15 17 21 25 29 34 37 42 50 52 56 62 70 76 75 68 55 47 45 45 44 43 44 45 48 57 54 53 57 75 81 81 89 100 107 102 95 92
6 9 7 7 12 13 8 12 10 6 5 12 15 20 25 32 36 36 37 40 48 52 56 61 68 76 78 73 63 51 46 45 44 44 43 45 54 63 64 58 52 72 84 89 96 98 103 101 94
7 7 7 12 5 8 6 9 11 13 3 8 14 20 25 30 34 37 40 42 45 50 56 61 65 70 76 81 83 75 65 57 50 48 49 49 49 58 68 71 60 57 74 85 92 100 96 105 100
11 2 10 9 4 7 8 14 12 18 9 4 11 17 22 30 35 38 42 44 47 52 56 59 63 67 72 76 76 78 75 64 58 57 52 53 55 51 58 69 83 67 60 70 91 101 93 98 103
16 9 8 6 9 15 10 12 16 17 21 18 8 9 18 25 31 36 42 45 46 54 56 57 59 62 67 72 77 79 76 78 73 66 61 58 59 59 58 59 75 89 81 67 75 97 104 105 83
8 9 7 7 7 0 9 7 14 19 20 28 15 1 11 19 21 25 33 41 44 50 54 57 59 60 63 68 72 77 82 83 84 78 70 68 65 64 62 63 63 81 89 88 68 91 102 98 106
7 6 6 5 8 7 13 3 2 22 18 16 22 7 5 12 15 18 23 31 35 42 48 51 56 59 62 64 66 69 75 78 79 83 83 74 68 68 66 65 67 72 80 90 89 66 94 106 110
6 5 8 7 6 1 11 2 9 14 18 14 19 12 6 10 14 16 21 26 32 40 45 49 54 57 60 64 65 66 70 75 81 85 88 90 85 77 74 72 71 71 77 83 91 100 93 101 105
12 6 2 3 2 6 12 1 16 9 10 15 22 16 10 12 16 21 23 30 31 39 44 47 51 55 58 61 63 65 67 70 74 79 84 89 92 88 83 82 79 79 79 78 85 86 80 110 104
4 1 4 9 4 1 7 11 11 8 26 20 18 15 13 14 17 22 25 30 33 35 40 44 46 49 52 56 59 61 63 66 68 71 74 78 84 87 83 80 80 79 79 77 79 86 83 103 97
1 2 2 7 3 5 9 10 7 12 11 19 21 19 21 20 22 24 26 32 36 37 36 40 45 48 50 53 57 59 60 63 66 68 71 72 75 81 84 77 76 76 72 68 74 75 84 98 112
4 4 4 3 3 8 9 5 12 15 18 16 21 30 29 21 22 30 33 35 38 40 36 38 42 46 50 53 55 57 58 58 60 64 68 72 73 74 79 82 78 77 76 70 66 59 72 69 98
3 4 3 2 4 7 5 11 6 8 17 20 33 38 24 19 28 33 36 41 42 40 36 38 42 44 46 50 54 56 56 57 57 60 64 68 72 76 77 80 83 80 80 76 68 59 58 78 82
4 4 10 7 9 7 3 14 9 9 7 18 5 8 22 29 37 37 38 40 41 44 43 40 43 46 48 49 51 53 55 55 57 59 61 64 69 72 77 79 81 84 80 79 73 79 60 53 56
Wind_Direction_500mb
318 331 339 314 251 219 213 91 87 123 117 38 24 4 352 34 45 71 27 23 9 8 330 332 320 227 218 215 206 207 209 215 227 231 235 237 237 237 233 220 216 208 203 201 203 205 203 208 251
325 334 328 283 249 256 43 128 128 75 56 5 10 337 19 57 65 52 24 17 26 19 17 334 350 305 226 240 232 228 227 230 234 240 246 249 249 246 240 229 220 218 213 214 212 210 217 234 266
318 1 298 274 249 276 142 26 84 84 94 39 351 4 30 3 44 31 24 20 21 15 20 341 331 331 279 235 240 244 234 237 239 247 257 257 255 251 243 235 227 224 224 225 224 225 235 247 261
359 247 245 248 273 299 95 335 31 27 94 99 44 104 61 50 40 22 26 24 18 4 2 4 356 345 321 266 243 243 247 241 246 248 251 258 257 256 248 243 237 233 234 239 242 242 246 256 256
341 267 254 255 262 11 24 81 348 15 25 51 43 81 69 35 27 19 24 26 19 19 19 10 4 2 347 293 257 254 254 251 248 251 255 257 257 256 253 248 244 242 240 240 242 246 253 248 240
258 260 255 249 198 110 30 349 7 61 59 35 23 337 64 17 27 21 28 24 25 30 39 44 28 6 355 343 272 259 258 257 255 253 253 253 252 252 254 253 250 245 243 242 244 248 247 231 222
259 249 256 283 302 89 84 72 30 11 40 29 8 360 31 1 9 14 26 23 27 27 357 16 344 8 21 345 333 288 265 259 257 255 256 250 249 250 250 251 250 246 243 241 243 241 236 223 225
306 271 282 262 258 70 18 42 47 32 0 29 41 24 352 353 359 356 13 360 354 346 341 325 305 283 265 265 324 308 294 275 263 256 253 255 255 250 250 249 246 243 241 234 230 230 239 232 233
346 300 252 360 20 80 35 20 24 356 10 63 38 24 1 355 338 336 341 335 335 334 340 336 327 322 291 264 246 282 301 290 270 263 259 252 249 251 250 248 246 242 238 230 228 231 235 243 244
253 260 49 41 26 32 41 28 6 7 43 359 359 356 1 359 4 359 352 350 348 343 341 339 336 338 332 308 269 259 305 302 294 270 261 262 258 252 251 251 247 242 235 230 229 234 236 241 243
349 21 134 57 49 41 41 47 53 18 64 7 3 353 359 2 2 4 359 351 345 340 335 333 329 328 326 331 312 271 263 265 289 285 273 267 262 255 256 251 250 242 235 230 227 232 237 241 238
187 74 64 73 65 52 24 342 79 52 27 16 7 2 6 12 9 3 357 358 347 342 339 333 327 323 317 315 317 314 275 272 273 273 286 271 263 257 254 253 249 248 241 235 231 229 235 239 243
253 94 88 71 71 44 355 32 93 48 37 32 27 22 22 19 15 7 3 2 356 354 348 340 334 325 319 313 308 304 303 269 270 282 262 280 268 259 256 253 250 252 251 244 238 236 234 238 239
83 84 79 48 47 53 29 31 113 36 37 47 40 31 26 23 16 15 13 9 6 2 355 350 343 333 324 317 312 306 298 291 277 264 282 265 275 268 260 253 248 246 250 252 251 242 240 238 240
132 126 128 35 353 51 350 67 63 35 63 62 56 37 24 17 12 13 7 8 6 4 360 358 352 344 337 325 320 313 305 293 287 281 263 274 282 268 272 257 245 237 242 247 247 246 241 241 242
179 245 163 53 10 19 307 113 99 72 59 62 53 42 36 25 13 1 360 5 6 4 3 0 358 354 346 340 327 319 313 306 294 283 276 263 270 274 266 270 263 252 247 242 243 238 239 243 241
209 177 101 125 45 303 278 130 127 93 74 55 41 30 23 19 16 8 359 356 0 3 5 4 1 359 356 351 341 329 320 314 306 297 286 274 260 264 273 258 268 268 263 258 250 245 244 246 246
92 115 120 64 38 326 57 117 154 129 62 51 30 16 9 7 8 4 2 357 354 359 3 6 6 3 359 357 354 343 335 324 316 308 303 286 269 256 264 269 261 262 263 262 258 251 251 249 248
67 100 69 103 87 314 117 300 205 176 253 26 14 9 5 4 358 359 359 356 357 359 3 5 5 7 5 360 357 355 349 337 329 320 309 303 292 273 263 264 269 262 262 256 247 251 250 246 247
22 190 70 102 95 337 275 265 236 191 219 303 336 1 2 358 358 359 358 358 1 358 3 5 5 6 7 5 1 355 354 350 339 330 322 316 306 298 289 273 266 269 270 261 256 245 242 235 234
53 33 17 337 328 247 276 265 229 201 217 226 262 340 353 356 354 355 355 360 3 1 4 5 6 6 6 6 4 1 357 354 352 344 333 328 320 312 303 288 267 264 268 270 260 251 245 238 225
134 34 287 261 281 224 180 282 199 193 207 216 205 336 345 345 345 350 349 359 3 4 5 6 7 8 8 8 7 6 3 358 354 351 344 334 329 322 316 307 291 275 268 268 269 252 239 247 236
86 331 274 276 266 19 192 223 166 176 204 194 167 191 307 326 332 340 344 350 354 1 6 6 8 8 7 8 8 7 6 2 358 353 349 347 337 332 326 318 305 293 278 265 261 285 241 242 237
286 242 188 217 246 336 141 173 217 179 203 149 155 197 263 301 313 317 330 340 346 354 358 1 3 5 6 6 6 7 6 4 3 359 354 351 348 341 333 326 319 307 295 277 264 255 251 238 238
233 222 158 349 15 231 119 291 249 164 128 151 168 189 235 281 294 310 320 330 338 345 352 355 357 359 1 3 5 5 4 4 5 3 358 354 350 348 341 335 328 320 308 292 278 260 269 238 241
13 79 154 203 225 99 132 237 252 132 154 162 183 207 245 271 290 304 311 318 324 336 342 346 349 350 353 355 358 1 3 3 2 2 2 359 354 350 347 341 336 329 315 300 296 276 257 244 249
9 218 54 98 92 47 233 269 27 136 166 183 209 227 243 263 288 305 309 310 310 322 333 338 340 342 344 347 350 353 356 359 360 359 359 360 357 352 348 347 343 340 329 312 302 281 261 257 241
7 151 102 345 130 260 250 254 243 203 207 204 220 229 240 252 286 297 297 300 301 310 321 330 334 336 337 339 343 346 349 352 354 356 357 357 357 356 350 349 347 346 341 329 316 295 276 271 242
145 199 235 36 163 203 277 261 243 116 189 195 208 221 217 254 284 296 294 297 299 303 311 317 327 331 333 334 335 338 342 345 348 351 353 355 354 356 356 350 349 348 349 345 333 321 297 265 253
330 239 173 148 225 236 150 266 153 128 87 106 96 240 249 265 285 293 295 297 295 300 304 307 319 325 328 329 330 332 335 339 342 346 349 350 352 353 354 356 351 350 350 350 348 344 325 286 273
Wind_Speed_850mb
16 19 16 15 6 8 10 9 11 11 13 26 16 13 11 18 17 12 31 45 40 28 21 28 16 7 9 13 18 23 22 20 18 19 18 17 17 16 17 19 22 24 24 23 20 18 17 17 11
14 15 11 11 6 10 9 18 12 22 25 20 13 6 11 23 41 32 53 47 41 38 22 34 27 14 14 16 15 20 23 22 21 21 21 21 21 21 20 21 24 26 26 23 21 21 22 18 15
8 9 11 6 8 10 4 4 19 25 29 9 9 8 15 18 49 30 38 45 46 37 25 16 28 26 19 23 21 21 24 26 25 24 26 25 25 24 23 23 25 28 27 25 23 23 26 23 22
5 7 11 5 18 19 14 14 25 23 14 15 9 12 48 58 35 38 37 43 45 41 39 33 31 29 24 23 25 25 26 29 29 30 30 29 27 27 26 27 28 30 32 33 32 31 32 30 25
6 11 5 10 19 13 23 19 10 12 9 32 16 19 44 58 37 38 45 47 48 48 45 44 45 40 31 23 26 28 28 31 33 34 34 34 34 33 31 31 32 33 35 35 36 36 38 32 26
8 7 7 13 9 7 15 11 14 13 29 41 28 26 33 53 62 60 48 42 36 30 39 27 39 41 40 29 24 29 33 34 37 39 38 37 36 36 36 36 37 37 38 38 38 37 35 29 27
6 6 12 18 23 10 13 18 37 31 42 43 30 16 19 62 59 50 45 30 26 15 11 12 6 7 18 37 32 32 37 37 39 41 44 42 41 39 38 38 39 40 41 42 40 35 32 30 29
6 5 8 9 11 13 18 16 26 33 16 16 40 18 27 62 52 34 16 16 12 14 13 13 13 10 8 4 21 34 34 42 44 43 46 47 47 45 43 42 42 42 43 42 39 38 33 29 30
4 4 6 11 14 12 28 19 35 19 16 41 33 38 40 45 36 37 39 35 35 33 33 29 26 23 20 15 10 12 39 36 44 48 52 49 50 51 50 49 46 46 44 45 44 48 44 38 37
5 3 10 21 23 13 24 25 25 17 37 30 54 45 46 46 51 48 51 53 52 50 46 44 38 33 27 23 21 15 9 40 38 45 56 55 55 53 56 55 52 51 50 52 50 52 51 47 45
2 6 8 25 22 22 20 28 28 24 19 31 39 48 50 46 48 46 45 46 49 50 49 49 49 43 37 29 23 23 19 17 41 42 46 51 52 57 58 59 57 56 57 60 58 59 59 58 56
3 20 23 19 22 11 6 6 32 38 14 20 26 30 35 43 46 47 50 50 52 50 52 52 50 51 46 41 31 28 29 22 24 36 48 50 54 63 63 61 65 64 62 67 68 71 69 66 64
5 17 29 25 16 23 4 13 33 31 19 20 20 27 35 39 41 42 46 48 54 57 52 52 53 49 52 51 46 36 29 36 33 28 34 50 58 61 71 70 68 70 67 68 75 78 78 75 71
15 22 27 25 16 19 13 15 17 23 15 20 22 28 33 39 42 47 56 58 62 61 61 57 52 51 49 49 48 48 43 38 40 41 28 38 51 66 69 75 80 77 75 68 69 79 84 81 81
10 17 14 23 22 10 16 16 14 13 14 19 21 23 30 36 41 48 51 56 60 64 65 66 60 55 50 50 49 45 46 46 41 42 51 33 36 57 73 73 77 75 76 71 68 71 78 86 83
10 6 9 9 21 5 9 12 12 7 12 19 20 22 25 28 36 43 48 51 56 62 70 71 69 64 55 48 47 48 43 45 47 44 46 56 45 41 57 76 78 84 88 82 80 77 77 80 86
8 4 7 10 13 9 6 16 13 5 11 15 17 21 25 29 34 37 42 50 52 56 62 70 76 75 68 55 47 45 45 44 43 44 45 48 57 54 53 57 75 81 81 89 100 107 102 95 92
6 9 7 7 12 13 8 12 10 6 5 12 15 20 25 32 36 36 37 40 48 52 56 61 68 76 78 73 63 51 46 45 44 44 43 45 54 63 64 58 52 72 84 89 96 98 103 101 94
7 7 7 12 5 8 6 9 11 13 3 8 14 20 25 30 34 37 40 42 45 50 56 61 65 70 76 81 83 75 65 57 50 48 49 49 49 58 68 71 60 57 74 85 92 100 96 105 100
11 2 10 9 4 7 8 14 12 18 9 4 11 17 22 30 35 38 42 44 47 52 56 59 63 67 72 76 76 78 75 64 58 57 52 53 55 51 58 69 83 67 60 70 91 101 93 98 103
16 9 8 6 9 15 10 12 16 17 21 18 8 9 18 25 31 36 42 45 46 54 56 57 59 62 67 72 77 79 76 78 73 66 61 58 59 59 58 59 75 89 81 67 75 97 104 105 83
8 9 7 7 7 0 9 7 14 19 20 28 15 1 11 19 21 25 33 41 44 50 54 57 59 60 63 68 72 77 82 83 84 78 70 68 65 64 62 63 63 81 89 88 68 91 102 98 106
7 6 6 5 8 7 13 3 2 22 18 16 22 7 5 12 15 18 23 31 35 42 48 51 56 59 62 64 66 69 75 78 79 83 83 74 68 68 66 65 67 72 80 90 89 66 94 106 110
6 5 8 7 6 1 11 2 9 14 18 14 19 12 6 10 14 16 21 26 32 40 45 49 54 57 60 64 65 66 70 75 81 85 88 90 85 77 74 72 71 71 77 83 91 100 93 101 105
12 6 2 3 2 6 12 1 16 9 10 15 22 16 10 12 16 21 23 30 31 39 44 47 51 55 58 61 63 65 67 70 74 79 84 89 92 88 83 82 79 79 79 78 85 86 80 110 104
4 1 4 9 4 1 7 11 11 8 26 20 18 15 13 14 17 22 25 30 33 35 40 44 46 49 52 56 59 61 63 66 68 71 74 78 84 87 83 80 80 79 79 77 79 86 83 103 97
1 2 2 7 3 5 9 10 7 12 11 19 21 19 21 20 22 24 26 32 36 37 36 40 45 48 50 53 57 59 60 63 66 68 71 72 75 81 84 77 76 76 72 68 74 75 84 98 112
4 4 4 3 3 8 9 5 12 15 18 16 21 30 29 21 22 30 33 35 38 40 36 38 42 46 50 53 55 57 58 58 60 64 68 72 73 74 79 82 78 77 76 70 66 59 72 69 98
3 4 3 2 4 7 5 11 6 8 17 20 33 38 24 19 28 33 36 41 42 40 36 38 42 44 46 50 54 56 56 57 57 60 64 68 72 76 77 80 83 80 80 76 68 59 58 78 82
4 4 10 7 9 7 3 14 9 9 7 18 5 8 22 29 37 37 38 40 41 44 43 40 43 46 48 49 51 53 55 55 57 59 61 64 69 72 77 79 81 84 80 79 73 79 60 53 56
Wind_Direction_850mb
318 331 339 314 251 219 213 91 87 123 117 38 24 4 352 34 45 71 27 23 9 8 330 332 320 227 218 215 206 207 209 215 227 231 235 237 237 237 233 220 216 208 203 201 203 205 203 208 251
325 334 328 283 249 256 43 128 128 75 56 5 10 337 19 57 65 52 24 17 26 19 17 334 350 305 226 240 232 228 227 230 234 240 246 249 249 246 240 229 220 218 213 214 212 210 217 234 266
318 1 298 274 249 276 142 26 84 84 94 39 351 4 30 3 44 31 24 20 21 15 20 341 331 331 279 235 240 244 234 237 239 247 257 257 255 251 243 235 227 224 224 225 224 225 235 247 261
359 247 245 248 273 299 95 335 31 27 94 99 44 104 61 50 40 22 26 24 18 4 2 4 356 345 321 266 243 243 247 241 246 248 251 258 257 256 248 243 237 233 234 239 242 242 246 256 256
341 267 254 255 262 11 24 81 348 15 25 51 43 81 69 35 27 19 24 26 19 19 19 10 4 2 347 293 257 254 254 251 248 251 255 257 257 256 253 248 244 242 240 240 242 246 253 248 240
258 260 255 249 198 110 30 349 7 61 59 35 23 337 64 17 27 21 28 24 25 30 39 44 28 6 355 343 272 259 258 257 255 253 253 253 252 252 254 253 250 245 243 242 244 248 247 231 222
259 249 256 283 302 89 84 72 30 11 40 29 8 360 31 1 9 14 26 23 27 27 357 16 344 8 21 345 333 288 265 259 257 255 256 250 249 250 250 251 250 246 243 241 243 241 236 223 225
306 271 282 262 258 70 18 42 47 32 0 29 41 24 352 353 359 356 13 360 354 346 341 325 305 283 265 265 324 308 294 275 263 256 253 255 255 250 250 249 246 243 241 234 230 230 239 232 233
346 300 252 360 20 80 35 20 24 356 10 63 38 24 1 355 338 336 341 335 335 334 340 336 327 322 291 264 246 282 301 290 270 263 259 252 249 251 250 248 246 242 238 230 228 231 235 243 244
253 260 49 41 26 32 41 28 6 7 43 359 359 356 1 359 4 359 352 350 348 343 341 339 336 338 332 308 269 259 305 302 294 270 261 262 258 252 251 251 247 242 235 230 229 234 236 241 243
349 21 134 57 49 41 41 47 53 18 64 7 3 353 359 2 2 4 359 351 345 340 335 333 329 328 326 331 312 271 263 265 289 285 273 267 262 255 256 251 250 242 235 230 227 232 237 241 238
187 74 64 73 65 52 24 342 79 52 27 16 7 2 6 12 9 3 357 358 347 342 339 333 327 323 317 315 317 314 275 272 273 273 286 271 263 257 254 253 249 248 241 235 231 229 235 239 243
253 94 88 71 71 44 355 32 93 48 37 32 27 22 22 19 15 7 3 2 356 354 348 340 334 325 319 313 308 304 303 269 270 282 262 280 268 259 256 253 250 252 251 244 238 236 234 238 239
83 84 79 48 47 53 29 31 113 36 37 47 40 31 26 23 16 15 13 9 6 2 355 350 343 333 324 317 312 306 298 291 277 264 282 265 275 268 260 253 248 246 250 252 251 242 240 238 240
132 126 128 35 353 51 350 67 63 35 63 62 56 37 24 17 12 13 7 8 6 4 360 358 352 344 337 325 320 313 305 293 287 281 263 274 282 268 272 257 245 237 242 247 247 246 241 241 242
179 245 163 53 10 19 307 113 99 72 59 62 53 42 36 25 13 1 360 5 6 4 3 0 358 354 346 340 327 319 313 306 294 283 276 263 270 274 266 270 263 252 247 242 243 238 239 243 241
209 177 101 125 45 303 278 130 127 93 74 55 41 30 23 19 16 8 359 356 0 3 5 4 1 359 356 351 341 329 320 314 306 297 286 274 260 264 273 258 268 268 263 258 250 245 244 246 246
92 115 120 64 38 326 57 117 154 129 62 51 30 16 9 7 8 4 2 357 354 359 3 6 6 3 359 357 354 343 335 324 316 308 303 286 269 256 264 269 261 262 263 262 258 251 251 249 248
67 100 69 103 87 314 117 300 205 176 253 26 14 9 5 4 358 359 359 356 357 359 3 5 5 7 5 360 357 355 349 337 329 320 309 303 292 273 263 264 269 262 262 256 247 251 250 246 247
22 190 70 102 95 337 275 265 236 191 219 303 336 1 2 358 358 359 358 358 1 358 3 5 5 6 7 5 1 355 354 350 339 330 322 316 306 298 289 273 266 269 270 261 256 245 242 235 234
53 33 17 337 328 247 276 265 229 201 217 226 262 340 353 356 354 355 355 360 3 1 4 5 6 6 6 6 4 1 357 354 352 344 333 328 320 312 303 288 267 264 268 270 260 251 245 238 225
134 34 287 261 281 224 180 282 199 193 207 216 205 336 345 345 345 350 349 359 3 4 5 6 7 8 8 8 7 6 3 358 354 351 344 334 329 322 316 307 291 275 268 268 269 252 239 247 236
86 331 274 276 266 19 192 223 166 176 204 194 167 191 307 326 332 340 344 350 354 1 6 6 8 8 7 8 8 7 6 2 358 353 349 347 337 332 326 318 305 293 278 265 261 285 241 242 237
286 242 188 217 246 336 141 173 217 179 203 149 155 197 263 301 313 317 330 340 346 354 358 1 3 5 6 6 6 7 6 4 3 359 354 351 348 341 333 326 319 307 295 277 264 255 251 238 238
233 222 158 349 15 231 119 291 249 164 128 151 168 189 235 281 294 310 320 330 338 345 352 355 357 359 1 3 5 5 4 4 5 3 358 354 350 348 341 335 328 320 308 292 278 260 269 238 241
13 79 154 203 225 99 132 237 252 132 154 162 183 207 245 271 290 304 311 318 324 336 342 346 349 350 353 355 358 1 3 3 2 2 2 359 354 350 347 341 336 329 315 300 296 276 257 244 249
9 218 54 98 92 47 233 269 27 136 166 183 209 227 243 263 288 305 309 310 310 322 333 338 340 342 344 347 350 353 356 359 360 359 359 360 357 352 348 347 343 340 329 312 302 281 261 257 241
7 151 102 345 130 260 250 254 243 203 207 204 220 229 240 252 286 297 297 300 301 310 321 330 334 336 337 339 343 346 349 352 354 356 357 357 357 356 350 349 347 346 341 329 316 295 276 271 242
145 199 235 36 163 203 277 261 243 116 189 195 208 221 217 254 284 296 294 297 299 303 311 317 327 331 333 334 335 338 342 345 348 351 353 355 354 356 356 350 349 348 349 345 333 321 297 265 253
330 239 173 148 225 236 150 266 153 128 87 106 96 240 249 265 285 293 295 297 295 300 304 307 319 325 328 329 330 332 335 339 342 346 349 350 352 353 354 356 351 350 350 350 348 344 325 286 273